Location: *
(49.2426°S, 152.4945°W)
Time: 03:56:46
(UTC+00:00)

Daily predictions for brighter satellites

Satellite Brightness Start Highest point End
(mag) Time Altitude Azimuth Time Altitude Azimuth Time Altitude Azimuth
BREEZE-M DEB (TANK) 4.5 05:02:10 10° W 05:07:36 87° S 05:29:47 10° E
Cosmos 2237 Rocket 3.3 05:27:15 10° SSW 05:32:21 31° SE 05:37:24 10° ENE
IRS-1C Rocket 4.1 05:28:13 10° SSE 05:33:35 79° ENE 05:38:53 10° NNW
ATLAS CENTAUR R/B 2.7 05:29:40 10° WNW 05:34:13 53° SW 05:38:59 10° SSE
Cosmos 921 Rocket 3.8 05:30:47 10° SSW 05:34:57 51° WNW 05:39:01 10° N
USA 267 3.5 05:29:46 10° ESE 05:36:09 48° NE 05:42:29 10° NNW
USA 281 3.2 05:30:35 10° SSE 05:37:14 68° ENE 05:43:48 10° NNW
SL-08 R/B 4.5 05:32:10 10° N 05:38:19 79° E 05:44:36 10° SSE
Cosmos 1825 3.2 05:36:30 10° NNE 05:39:46 28° E 05:43:05 10° SSE
Cosmos 2360 Rocket 3.4 05:34:59 10° SW 05:40:24 44° WNW 05:45:45 10° N
Cosmos 1745 Rocket 4.1 05:34:51 10° N 05:41:08 62° E 05:47:27 10° SSE
Cosmos 1076 Rocket 4.1 05:37:55 10° NNE 05:41:58 38° E 05:46:05 10° SSE
Cosmos 1833 4.4 05:37:07 10° NNW 05:42:49 82° WSW 05:48:33 10° SSE
Cosmos 1850 Rocket 4.2 05:40:43 10° NNW 05:46:06 88° WSW 05:51:31 10° SSE
SL-24 DEB 4.3 05:44:02 10° N 05:48:51 80° E 05:53:42 10° S
ISS -3.1 05:45:29 10° WSW 05:48:55 56° S 05:52:20 10° E
CZ-4 R/B 1.5 05:46:12 10° SSE 05:50:32 87° ENE 05:54:42 10° NNW
Cosmos 1340 2.8 05:48:43 10° NNW 05:52:33 84° W 05:56:27 10° S
H-2A R/B 3.7 05:49:57 10° NNE 05:53:59 54° ESE 05:58:07 10° S
Meteor 2-2 Rocket 4.5 05:49:15 10° SSW 05:55:02 79° W 06:00:53 10° N
Cosmos 1386 Rocket 4.4 05:49:23 10° N 05:55:32 74° E 06:01:40 10° SSE
CSL-04 Debris 4.4 05:50:26 10° SSE 05:55:48 51° E 06:01:04 10° N
SL-16 R/B 3.8 05:53:39 10° S 05:58:08 22° SE 06:02:35 10° E
SJ-11-01 4.4 05:55:24 10° SSE 06:00:10 60° E 06:04:50 10° N
COSMOS 2487 3.5 05:57:31 10° NW 06:00:53 50° WSW 06:04:20 10° SSE
NOSS 3-1 (C) 4.1 05:53:36 10° NNW 06:02:15 68° NE 06:09:50 10° SE
Cosmos 2227 Rocket 3.6 06:01:34 11° NE 06:04:58 18° E 06:08:44 10° ESE
Orbus 7S? 4.3 06:03:12 10° WSW 06:05:58 37° NW 06:10:31 10° NNE
Cosmos 724 4.4 06:00:57 10° SW 06:06:53 82° NW 06:12:20 12° NNE
Cosmos 2219 Rocket 2.5 06:01:43 10° SSW 06:07:24 68° WNW 06:13:02 10° NNE
Cosmos 1709 Rocket 4.1 06:04:48 10° N 06:11:00 60° E 06:17:11 10° SSE
USA 234 3.3 06:06:09 12° ENE 06:12:17 87° SSE 06:18:57 10° WSW
TELKOM 3 3.9 06:10:08 10° W 06:14:08 86° S 06:16:34 17° E
Cosmos 1151 Rocket 4.3 06:10:40 10° SSE 06:14:27 27° ESE 06:16:57 17° ENE
Cosmos 1606 3.2 06:11:30 10° S 06:15:13 42° ESE 06:17:48 17° NE
CZ-2C R/B 3.5 06:12:17 10° S 06:17:45 76° WSW 06:23:26 10° NNW
USA 186 2.4 06:14:48 10° SSE 06:17:58 38° E 06:20:16 16° NNE
NOSS 0 Rocket 4.0 06:12:20 10° SSW 06:18:37 84° ESE 06:23:58 15° NNE
Intercosmos 24 Rocket 4.4 06:18:30 10° S 06:23:16 79° ESE 06:26:23 14° NNE
FREGAT/IRIS 3.5 06:23:12 10° SE 06:25:23 23° E 06:25:23 23° E
Resurs 01 Rocket 3.4 06:27:24 10° SE 06:30:04 15° E 06:30:29 15° E
Cosmos 2181 Rocket 4.0 06:24:17 10° S 06:30:32 69° ESE 06:35:52 15° NNE
Cosmos 1933 4.0 06:27:08 10° S 06:31:07 41° ESE 06:33:14 23° NE
Cosmos 2151 3.0 06:27:53 10° N 06:32:04 59° E 06:36:21 10° SSE
Cosmos 389 Rocket 3.0 06:29:20 10° S 06:32:53 46° ESE 06:34:36 26° NE
YAOGAN 1 3.9 06:32:09 10° S 06:36:20 42° WSW 06:40:28 10° NW
OBJECT-B 1.8 06:34:32 10° SE 06:37:29 28° E 06:37:52 27° ENE
ARGOS 3.1 06:33:33 10° SSE 06:39:02 87° E 06:44:29 10° NNW
Timation 2 Rocket 4.2 06:34:42 10° N 06:41:21 56° ENE 06:47:51 10° SE
Cosmos 1932 4.5 06:35:33 10° SW 06:41:53 83° SE 06:46:12 22° NE
Cosmos 2058 4.4 06:39:09 10° NW 06:43:07 39° WSW 06:47:09 10° S
Cosmos 2297 Rocket 2.6 06:39:04 10° N 06:44:22 42° ENE 06:49:42 10° SE
Cosmos 1782 3.8 06:46:32 10° S 06:50:17 32° ESE 06:51:27 27° ENE
Cosmos 968 Rocket 3.5 06:47:08 10° N 06:52:09 56° ENE 06:57:13 10° SSE
H-2A R/B 2.8 06:49:07 10° S 06:54:04 53° WSW 06:59:04 10° NW
CSL-04 Rocket 4.3 06:50:38 10° S 06:56:04 59° WSW 07:01:31 10° NNW
Ariane Rocket 3.0 06:52:12 10° SSE 06:57:20 64° ENE 07:01:12 18° N
Blok-L 4.2 06:55:48 10° SW 06:58:20 89° SSE 07:02:25 24° NE
Cosmos 1515 Rocket 4.2 06:58:32 10° S 07:02:52 42° ESE 07:04:13 33° ENE
SL-08 RB Rocket 4.1 07:00:47 10° S 07:05:24 65° WSW 07:09:56 10° NNW
COSMOS 2428 4.3 07:00:39 10° SW 07:05:32 29° WNW 07:10:25 10° NNW
Nadezhda 3 Rocket 4.4 07:00:01 10° S 07:06:03 47° ESE 07:08:53 29° NE
Lacrosse 5 rocket 2.9 07:02:19 10° SW 07:06:23 34° SSE 07:09:23 15° ESE
Cosmos 2333 Rocket 4.2 07:02:21 10° SW 07:06:48 23° WNW 07:11:14 10° NNW
Meteor 2-3 Rocket 3.8 07:04:24 20° N 07:08:26 66° E 07:14:15 10° SSE
Cosmos 1486 Rocket 3.9 07:05:12 10° NNW 07:10:29 83° ENE 07:15:48 10° SSE
Cosmos 2219 3.1 07:08:08 10° NNW 07:13:50 73° ENE 07:19:33 10° SSE
Cosmos 1825 4.4 07:12:00 10° NW 07:15:15 26° WSW 07:18:32 10° SSW
Cosmos 2237 Rocket 2.6 07:11:08 10° SW 07:16:46 58° WNW 07:19:55 26° N
Resurs 1-3 3.6 07:12:22 10° SSE 07:16:49 60° E 07:18:11 40° NNE
SJ-6B 3.0 07:13:15 10° S 07:17:05 69° WSW 07:19:31 22° NNW
Kosmos-1783 4.4 07:09:33 10° NW 07:18:46 75° SW 07:21:32 10° SE
USA 267 3.5 07:12:47 10° SE 07:19:24 72° SSW 07:25:58 10° WNW
USA 229 DEB 4.2 07:12:13 10° NW 07:19:50 68° SW 07:27:04 10° SE
USA 229 4.2 07:12:18 10° NW 07:19:55 68° SW 07:27:10 10° SE
Cosmos 1503 Rocket 4.1 07:17:28 27° N 07:20:19 60° ENE 07:25:41 10° SSE
SeaSat 1 3.2 07:16:07 10° SE 07:20:22 31° ENE 07:20:22 31° ENE
Cosmos 2082 4.2 07:21:56 36° NE 07:23:06 40° ENE 07:28:22 10° SE
IRS-1A Rocket 4.4 07:18:01 10° SSE 07:24:02 87° WSW 07:29:10 14° NNW
Cosmos 2228 Rocket 3.8 07:21:02 10° S 07:25:13 37° ESE 07:25:53 35° E
ISS -3.7 07:22:23 10° WSW 07:25:45 68° NW 07:25:45 68° NW
Cosmos 1980 4.5 07:22:06 10° SW 07:27:31 45° WNW 07:30:34 24° NNW
Cosmos 1184 Rocket 4.3 07:28:53 27° SE 07:28:53 27° SE 07:30:51 10° SSE
Cosmos 1633 2.6 07:27:47 52° NNW 07:28:35 80° W 07:32:17 10° S
SAR-Lupe-2 3.9 07:27:56 47° NNW 07:28:43 61° WNW 07:32:22 10° SSW
Cosmos 1867 3.6 07:23:55 10° SW 07:29:22 76° SE 07:31:18 41° NE
Cosmos 1354 Rocket 4.0 07:29:12 33° N 07:31:31 65° ENE 07:36:53 10° SSE
IGS 5A 4.4 07:28:08 10° SSE 07:31:28 32° E 07:31:28 32° E
MOS 1 4.3 07:26:10 10° SSE 07:32:00 83° WSW 07:36:30 17° NNW
Okean 3 Rocket 4.2 07:30:30 19° NNW 07:33:39 56° WSW 07:38:12 10° S
NOSS 3-1 (A) 4.4 07:26:17 10° NW 07:34:54 70° SW 07:42:20 10° SE
CENTAUR R/B 3.9 07:30:34 10° SW 07:36:02 29° SSE 07:40:24 12° E
Cosmos 1500 Rocket 3.9 07:36:43 46° E 07:36:52 46° E 07:41:11 10° SSE
Cosmos 1610 Rocket 4.5 07:35:38 34° NNE 07:38:30 70° E 07:44:48 10° SSE
Cosmos 1766 Rocket 4.2 07:36:03 21° NNW 07:38:51 54° WSW 07:43:16 10° S
SL-16 R/B 2.2 07:37:16 10° SSW 07:43:04 90° NW 07:44:56 45° NNE
ERS-1 Rocket 4.5 07:41:45 10° SE 07:45:08 21° E 07:45:08 21° E
Cosmos 1743 Rocket 3.6 07:47:55 60° ENE 07:48:12 62° E 07:52:42 10° SSE
Cosmos 2227 Rocket 2.2 07:43:13 13° NNW 07:48:17 83° WSW 07:54:05 10° SSE
Cosmos 2184 Rocket 4.2 07:44:26 20° NNW 07:48:59 72° W 07:55:25 10° S
Thor Agena Rocket 3.7 07:50:15 48° ENE 07:51:20 59° ESE 07:56:25 10° S
Cosmos 1151 Rocket 4.3 07:48:02 10° SSW 07:52:05 35° W 07:53:48 26° NW
Cosmos 1295 Rocket 4.4 07:50:02 41° NNE 07:52:16 71° E 07:58:36 10° SSE
Cosmos 1441 Rocket 4.1 07:51:25 34° WNW 07:52:36 46° WSW 07:56:21 10° S
Meteor 1-27 Rocket 4.4 07:47:47 10° S 07:53:34 46° ESE 07:55:04 38° ENE
Cosmos 1812 3.0 07:51:29 10° S 07:55:07 56° ESE 07:55:07 56° ESE
USA 234 4.2 07:53:29 28° NNW 07:55:46 35° NW 08:01:43 10° WSW
Cosmos 2263 Rocket 3.8 07:57:04 20° E 07:57:04 20° E 07:59:59 10° SE
SPOT 3 Rocket 3.5 07:53:06 10° SSE 07:58:22 82° WSW 08:00:20 40° NNW
Cosmos 1538 Rocket 4.0 07:59:32 10° SSW 08:04:46 66° ESE 08:05:38 56° ENE
Meteor 1-4 Rocket 3.2 08:02:23 10° SSW 08:05:40 50° W 08:05:40 50° W
Resurs 01 Rocket 1.8 08:02:31 10° S 08:07:04 70° WSW 08:08:03 52° NW
OBJECT-B 3.3 08:07:06 10° SSW 08:09:40 21° WSW 08:11:03 16° W
USA 238 DEB 4.2 08:04:07 10° SW 08:11:04 53° SE 08:14:20 30° E
USA 238 4.2 08:04:13 10° SW 08:11:10 53° SE 08:14:26 30° E
ARIANE 5 R/B 2.6 08:08:56 10° SSE 08:13:09 72° ESE 08:13:09 72° ESE
Cosmos 1805 Rocket 3.9 08:14:38 54° ESE 08:14:38 54° ESE 08:18:40 10° SSE
Cosmos 2341 Rocket 4.0 08:13:43 51° NNE 08:15:19 72° E 08:21:45 10° SSE
NOSS 3-2 (A) 3.9 08:09:30 10° SW 08:16:14 58° SE 08:18:26 38° E
ATLAS 3B R/B 4.5 08:14:18 10° SW 08:20:38 29° SSE 08:26:46 10° ESE
Terra 3.1 08:19:42 10° SSE 08:23:06 28° ESE 08:23:06 28° ESE
Cosmos 2218 Rocket 4.1 08:24:06 51° ENE 08:24:57 55° E 08:31:02 10° SSE
Spot 2 Rocket 3.3 08:20:04 10° SSE 08:25:13 73° ENE 08:25:28 72° NE
EO 1 Del DPAF 3.8 08:28:15 55° S 08:28:15 55° S 08:31:22 10° S
Lacrosse 4 Rocket 4.3 08:26:18 10° S 08:28:18 13° SSE 08:30:16 10° SE
Cosmos 2297 Rocket 3.4 08:23:07 10° WNW 08:28:27 40° SW 08:33:50 10° SSE
Cosmos 1603 3.8 08:27:48 10° SSW 08:33:37 68° ESE 08:34:35 57° ENE
SL-8 Rocket 3.9 08:37:21 60° NNE 08:38:34 80° E 08:44:59 10° S
Cosmos 1777 Rocket 4.0 08:39:08 69° NW 08:39:47 84° WSW 08:45:11 10° SSE
SPOT 5 3.2 08:35:01 10° SSE 08:40:09 59° E 08:40:09 59° E
Cosmos 158 Rocket 4.2 08:39:34 10° SSW 08:44:56 62° ESE 08:45:24 59° E
Lacrosse 5 rocket 2.0 08:41:40 10° SW 08:45:00 51° SW 08:45:00 51° SW
Cosmos 864 Rocket 4.4 08:50:56 65° NNE 08:51:54 79° E 08:58:16 10° SSE
SPOT 1/Viking Rocket 3.6 08:47:35 10° S 08:52:51 71° WSW 08:53:30 63° WNW
SJ 16-02 2.5 08:55:49 36° SE 08:55:49 36° SE 08:58:47 10° SSE
Resurs 1-4 Rocket 4.4 08:52:45 11° E 08:55:11 15° SE 08:58:05 10° SSE
Cosmos 1707 Rocket 3.9 08:51:18 10° SSW 08:55:10 63° SW 08:55:10 63° SW
SeaSat 1 3.3 08:53:25 10° SSE 08:58:13 48° SW 09:00:08 32° WNW
Cosmos 405 Rocket 3.7 08:59:16 48° SSW 08:59:16 48° SSW 09:02:26 10° S
Cosmos 1437 Rocket 3.8 08:57:32 10° SSW 09:00:21 44° SSW 09:00:21 44° SSW
USA 267 4.2 08:55:41 10° ESE 09:01:57 47° S 09:08:13 10° WSW
Cosmos 1959 Rocket 4.5 09:00:58 62° NNW 09:02:08 85° W 09:08:38 10° S
CZ-2D R/B 4.2 09:09:17 16° E 09:11:31 20° SE 09:15:26 10° S
Cosmos 923 Rocket 4.0 09:07:16 10° SSW 09:12:36 78° W 09:12:36 78° W
Cosmos 1633 Rocket 3.6 09:13:38 58° S 09:13:38 58° S 09:17:15 10° S
Helios 1B rocket 4.1 09:13:29 27° SE 09:13:29 27° SE 09:16:40 10° S
Sich 1 3.8 09:15:03 47° WSW 09:15:03 47° WSW 09:19:04 10° S
Cosmos 1943 3.1 09:10:19 10° SSW 09:16:01 72° WNW 09:16:02 72° WNW
NOSS 3-2 (C) 3.4 09:10:25 10° SW 09:17:11 79° SE 09:18:05 65° ENE
Cosmos 2366 rocket 4.1 09:16:07 57° NW 09:17:13 69° WSW 09:23:28 10° S
Cosmos 1470 Rocket 4.4 09:20:14 44° SE 09:20:14 44° SE 09:23:29 10° SSE
ERS-1 Rocket 3.3 09:19:49 10° S 09:24:51 59° WSW 09:25:08 58° W
SL-08 R/B 4.3 09:25:11 74° NNW 09:25:49 89° WSW 09:32:03 10° S
SL-16 R/B 4.2 09:22:56 10° WSW 09:26:22 16° W 09:26:49 16° WNW
CENTAUR R/B 2.0 09:21:28 10° SW 09:27:29 86° SE 09:27:34 86° E
Okean 1 4.4 09:23:43 10° S 09:26:42 45° S 09:26:42 45° S
Cosmos 1844 Rocket 4.2 09:30:01 24° E 09:30:01 24° E 09:33:40 10° SE
Cosmos 2227 Rocket 4.5 09:28:59 10° W 09:33:16 21° SW 09:37:33 10° S
Cosmos 1934 Rocket 4.5 09:33:43 45° ENE 09:34:18 47° E 09:40:22 10° SSE
Cosmos 1862 Rocket 4.4 09:31:48 10° SSW 09:35:13 46° SW 09:35:13 46° SW
Cosmos 1242 Rocket 4.3 09:33:35 10° S 09:35:49 32° S 09:35:49 32° S
PSLV R/B 4.0 09:38:07 66° SSW 09:38:07 66° SSW 09:42:19 10° SSW
Cosmos 2263 Rocket 2.2 09:38:43 68° W 09:39:11 72° WSW 09:44:53 10° SSE
ATLAS 2AS CENTAUR R/B 3.5 09:40:59 30° E 09:40:59 30° E 09:45:25 10° SE
Meteor 1-18 Rocket 4.1 09:34:53 10° SSW 09:40:33 88° W 09:40:36 87° NW
Cosmos 1727 Rocket 4.3 09:37:58 10° SSW 09:44:11 53° W 09:44:56 50° WNW
Cosmos 2123 Rocket 4.1 09:38:51 10° S 09:45:10 65° ESE 09:46:02 59° ENE
Okean 1-7 3.8 09:44:47 10° S 09:48:08 49° SSE 09:48:08 49° SSE
Meteor 1-25 Rocket 4.3 09:50:28 66° W 09:50:49 68° WSW 09:56:37 10° S
Cosmos 990 Rocket 4.0 09:52:04 79° S 09:52:04 79° S 09:57:02 10° SSE
Cosmos 1933 Rocket 4.2 09:53:31 57° S 09:53:31 57° S 09:57:11 10° S
Cosmos 1680 Rocket 4.2 09:48:15 10° SSW 09:52:39 45° W 09:52:39 45° W
CZ-4 R/B 4.1 09:56:12 65° WSW 09:56:12 65° WSW 10:00:47 10° SSW
Terra 2.8 09:57:18 10° S 10:01:48 39° WSW 10:01:59 39° WSW
USA 238 DEB 4.0 09:55:25 10° SW 10:01:45 46° WNW 10:01:45 46° WNW
USA 238 4.0 09:55:31 10° SW 10:01:51 47° WNW 10:01:51 47° WNW
Gbstr 26 Del rocket 4.0 10:03:22 35° WNW 10:06:41 89° SSW 10:12:54 10° ESE
NOSS 3-2 (A) 4.3 10:01:00 10° SW 10:05:48 34° W 10:05:48 34° W
Lacrosse 4 Rocket 2.4 10:03:49 10° SSW 10:07:50 46° SE 10:07:50 46° SE
GEOS 3 Rocket 4.3 10:04:48 10° SSE 10:09:39 47° SW 10:11:03 37° W
Cosmos 2239 Rocket 4.4 10:11:22 66° WNW 10:12:02 72° W 10:18:21 10° S
Cosmos 1937 Rocket 3.5 10:12:24 84° SSE 10:12:24 84° SSE 10:17:38 10° SSE
ATLAS 3B R/B 3.1 10:05:32 10° SW 10:12:48 64° SE 10:16:51 27° ENE
SL-19 R/B 4.5 10:12:16 65° NE 10:13:14 79° ESE 10:19:23 10° SSW
Cosmos 858 Rocket 4.5 10:17:58 82° SW 10:17:58 82° SW 10:23:13 10° SSE
Cosmos 1869 Rocket 4.1 10:20:37 58° SE 10:20:37 58° SE 10:24:23 10° SSE
ADEOS II 3.7 10:17:37 21° E 10:19:52 28° ESE 10:24:22 10° S
Cosmos 2082 Rocket 4.5 10:24:36 10° S 10:29:02 22° SE 10:33:26 10° E
SJ 16-02 3.2 10:32:47 22° WSW 10:33:18 23° SW 10:36:52 10° S
Resurs 1-4 Rocket 2.1 10:33:49 73° ENE 10:34:09 76° ESE 10:39:31 10° SSW
Cosmos 2221 Rocket 4.0 10:29:46 10° S 10:34:00 61° SE 10:34:00 61° SE
ATLAS CENTAUR R/B 4.2 10:32:03 10° SSW 10:35:46 21° SSE 10:39:26 10° ESE
Meteor 1-13 Rocket 4.0 10:35:23 10° SSW 10:41:02 82° W 10:41:13 80° NW
Spot 4 4.1 10:38:46 10° S 10:43:33 61° WSW 10:43:33 61° WSW
USA 267 4.0 10:37:58 10° E 10:44:20 52° SSE 10:50:43 10° WSW
Cosmos 1898 Rocket 4.4 10:44:07 38° WSW 10:44:51 40° WSW 10:49:52 10° SSE
Cosmos 1271 Rocket 4.0 10:43:57 10° SSW 10:46:34 38° SSW 10:46:34 38° SSW
Helios 1B rocket 4.1 10:49:47 25° WSW 10:49:47 25° WSW 10:52:05 10° SSW
Meteor 2-4 Rocket 4.3 10:43:34 10° SSW 10:48:30 42° W 10:48:30 42° W
CZ-2D R/B 2.0 10:50:36 78° NNW 10:50:55 83° WNW 10:56:32 10° SSW
Meteor 1-23 Rocket 4.4 10:45:44 10° S 10:51:37 72° ESE 10:52:41 58° NE
COSMOS 2406 3.9 10:46:36 10° SSW 10:52:18 52° SE 10:55:18 27° ENE
NPP 3.5 10:52:08 76° NNE 10:52:35 88° ESE 10:58:06 10° SSW
ALOS 2 2.9 10:48:26 10° SSE 10:52:25 67° SSW 10:52:25 67° SSW
Meteor 1-11 Rocket 3.7 10:56:10 72° NNW 10:56:51 90° W 11:02:53 10° SSE
Cosmos 2278 Rocket 3.5 10:59:27 26° ENE 11:00:25 27° ENE 11:05:10 10° SE
Cosmos 1536 3.5 11:01:30 55° S 11:01:30 55° S 11:04:45 10° S
Cosmos 1743 3.9 11:02:01 38° ESE 11:02:01 38° ESE 11:05:10 10° SSE
IDEFIX/ARIANE 42P 4.5 10:58:29 10° ENE 11:02:43 26° ESE 11:07:02 10° S
IRIDIUM 114 4.3 11:03:32 67° NE 11:04:02 73° E 11:09:21 10° S
Cosmos 2298 Rocket 3.9 11:06:20 79° N 11:06:41 87° ENE 11:12:07 10° SSE
NOSS 3-4 (A) 4.1 11:07:30 39° WNW 11:10:53 74° SW 11:18:37 10° SE
NOSS 3-4 (C) 4.1 11:07:36 39° WNW 11:10:58 74° SW 11:18:43 10° SE
Cosmos 1066 Rocket 4.0 11:06:18 10° SSW 11:11:55 73° W 11:12:18 70° NW
Cosmos 2084 4.4 11:08:00 10° SW 11:10:51 41° SW 11:10:51 41° SW
Cosmos 1605 Rocket 4.1 11:11:26 51° WNW 11:12:27 57° WSW 11:18:34 10° S
Cosmos 1844 Rocket 2.9 11:11:39 53° W 11:12:35 61° WSW 11:18:13 10° SSE
IRIDIUM 103 4.2 11:12:41 73° NNE 11:13:12 86° E 11:18:33 10° S
CZ-4B R/B 3.6 11:12:22 54° ENE 11:13:12 65° ESE 11:18:01 10° S
Cosmos 1674 Rocket 3.6 11:08:54 10° S 11:13:19 77° ESE 11:13:19 77° ESE
Cosmos 1733 Rocket 3.1 11:13:57 81° SSE 11:13:57 81° SSE 11:18:19 10° S
RESURS DK-1 2.8 11:17:17 56° ESE 11:17:17 56° ESE 11:20:51 10° SE
CENTAUR R/B 4.2 11:13:27 10° WSW 11:14:43 14° W 11:14:43 14° W
Cosmos 1378 Rocket 3.7 11:12:41 10° S 11:17:09 69° ESE 11:17:13 68° E
Cosmos 1125 Rocket 3.5 11:17:02 66° NNE 11:17:31 71° ENE 11:22:50 10° SSE
Aureole 2 Rocket 4.2 11:19:15 27° SE 11:19:15 27° SE 11:20:53 10° SSE
USA 308 4.4 11:19:11 27° ENE 11:19:11 27° ENE 11:21:47 10° ESE
Cosmos 2150 Rocket 3.8 11:19:46 73° WNW 11:20:13 80° WSW 11:25:32 10° SSE
CZ-4C R/B 2.9 11:19:41 47° N 11:22:01 69° NE 11:28:54 10° SE
Cosmos 372 Rocket 4.5 11:22:15 45° W 11:22:59 49° WSW 11:28:08 10° SSE
Cosmos 1844 3.9 11:21:52 52° WNW 11:23:03 64° WSW 11:28:54 10° SSE
Cosmos 1908 Rocket 4.3 11:23:41 43° ENE 11:24:05 44° E 11:28:18 10° SSE
Cosmos 2263 Rocket 4.3 11:20:22 10° W 11:24:10 19° SW 11:28:05 10° S
ASTEX 1 3.3 11:26:28 70° NNE 11:27:03 86° E 11:32:05 10° S
Helios 1A 3.1 11:24:24 10° SSE 11:28:38 68° E 11:28:38 68° E
Cosmos 1048 Rocket 4.4 11:24:40 10° SSW 11:29:05 44° W 11:29:05 44° W
Cosmos 1802 Rocket 4.2 11:27:54 42° NNE 11:30:05 67° E 11:36:23 10° SSE
ATLAS 2AS CENTAUR R/B 2.7 11:28:23 42° WNW 11:30:26 64° SW 11:36:48 10° SE
YAOGAN 11 4.2 11:26:30 10° SSE 11:30:54 62° ENE 11:31:08 61° ENE
IRS-1D 3.3 11:30:52 68° N 11:31:29 80° WNW 11:36:40 10° SSW
IRIDIUM 106 4.3 11:30:57 63° NW 11:31:32 69° W 11:36:51 10° S
Cosmos 494 Rocket 3.9 11:28:47 10° SSW 11:33:57 63° WNW 11:34:05 63° WNW
APEX 4.1 11:34:02 51° NE 11:34:29 54° ENE 11:38:43 10° SE
USA 32 3.9 11:34:27 63° NW 11:35:10 74° W 11:40:31 10° S
Cosmos 1269 Rocket 4.1 11:31:23 10° SSW 11:36:46 79° ESE 11:38:49 39° NNE
Cosmos 1975 Rocket 4.2 11:35:38 10° S 11:39:53 41° ESE 11:41:54 26° NE
Lacrosse 4 Rocket 3.6 11:42:59 10° SW 11:44:06 16° WSW 11:44:06 16° WSW
AQUA 4.5 11:47:14 40° W 11:47:14 40° W 11:51:28 10° SSW
Cosmos 1707 4.3 11:47:39 10° S 11:51:17 33° ESE 11:53:21 20° NE
Cosmos 1725 Rocket 4.2 11:49:24 34° NNE 11:52:17 70° E 11:58:40 10° SSE
Cosmos 1833 Rocket 2.6 11:46:45 10° SSW 11:52:28 80° WNW 11:55:02 34° NNE
USA 215 3.5 11:46:18 10° ESE 11:52:49 56° NE 11:55:08 38° NNW
ARIANE 5 R/B 2.7 11:51:02 30° NNE 11:53:38 75° ESE 11:58:57 10° SSW
Gbstr 26 Del rocket 4.1 11:47:21 10° W 11:54:17 70° S 11:59:51 10° E
USA 276 3.6 11:57:39 33° E 11:57:39 33° E 11:59:35 10° E
